Wind_Speed
9 7 5 4 3 4 6 7 9 12 14 16 18 19 20 22 22 22 23 23 23 23 24 23 23 24 24 24 24 25 25 24 23 23 22 21 21 20
10 8 6 5 4 5 6 7 9 11 13 15 17 19 20 21 22 22 22 23 23 24 24 23 23 23 24 25 24 25 25 25 24 24 23 23 23 22
11 9 8 7 6 5 6 8 9 11 13 14 16 18 19 21 21 22 23 23 23 23 23 23 24 23 23 24 25 26 26 26 26 26 25 25 24 24
12 10 9 9 8 8 8 9 10 11 13 14 15 17 18 19 20 22 23 24 24 24 23 24 24 25 25 25 25 25 26 26 27 27 26 25 25 25
13 12 11 10 10 10 10 11 11 12 13 14 15 16 18 19 20 20 22 23 24 24 24 24 24 24 25 26 26 26 26 27 27 26 26 26 25 25
14 13 12 12 12 12 11 12 13 13 15 15 16 17 18 19 20 20 21 22 23 24 25 25 25 25 25 26 26 27 27 27 27 27 27 27 27 27
17 15 14 14 13 13 13 13 14 15 15 16 17 18 18 19 20 22 22 23 24 25 25 26 26 27 27 27 28 28 28 28 28 28 29 29 29 28
19 18 17 16 16 15 15 15 16 16 16 16 17 19 19 20 21 22 23 24 24 25 26 26 27 27 27 27 28 28 29 29 29 29 29 29 30 29
23 22 20 19 19 19 18 17 17 18 19 19 19 19 20 21 22 23 23 23 24 24 26 26 27 27 27 28 28 29 29 29 29 29 29 29 29 29
26 25 24 23 22 22 22 21 20 20 21 21 21 22 22 22 23 24 24 25 25 25 26 26 27 27 28 28 29 29 29 29 30 30 30 30 30 30
29 29 28 27 26 26 25 25 24 24 23 24 24 24 24 24 25 25 26 26 26 26 27 27 28 28 28 28 28 29 29 29 29 29 30 29 30 30
33 33 32 31 30 29 29 28 27 27 26 26 26 26 26 27 27 27 27 27 27 27 28 28 29 29 28 29 28 28 28 29 28 29 29 29 29 29
37 36 36 35 35 34 33 32 31 31 30 29 29 28 27 27 28 28 28 28 28 28 28 28 28 28 27 27 27 27 27 27 27 28 28 28 28 28
41 40 39 39 38 37 36 35 35 34 33 32 32 31 30 29 29 29 29 29 29 28 27 27 27 28 28 27 27 27 27 27 27 27 27 28 28 29
45 44 43 42 41 41 40 39 38 37 36 35 34 34 33 32 31 31 30 29 28 28 27 28 28 28 28 28 27 27 27 27 27 27 28 28 28 28
47 47 46 44 44 44 43 42 41 40 39 37 36 35 35 34 33 32 32 31 30 30 29 29 29 29 28 28 27 27 27 27 28 28 28 28 28 28
49 49 47 47 46 46 45 44 44 43 42 40 39 38 37 36 35 34 33 33 32 31 30 30 30 29 29 29 28 28 27 27 28 28 28 28 29 29
51 50 48 47 47 47 46 46 45 45 44 43 42 41 39 38 37 36 35 34 33 32 31 31 30 30 29 29 29 28 28 27 28 28 29 29 30 30
51 50 50 49 48 48 48 47 47 47 47 45 44 42 41 40 39 38 37 36 35 34 33 33 32 31 31 30 29 29 29 29 29 29 30 30 30 31
51 51 50 50 49 49 49 48 48 49 49 48 46 44 43 42 41 39 38 38 37 36 35 34 34 33 32 31 31 31 31 30 30 30 30 31 31 32
50 51 51 51 51 50 51 50 49 49 49 50 48 46 45 43 42 41 40 38 37 37 36 35 34 34 33 33 32 32 32 31 31 31 31 31 32 32
49 50 51 51 51 51 50 50 49 49 49 50 49 48 46 45 44 42 41 40 39 38 37 36 36 35 34 33 33 32 32 32 31 31 31 31 32 33
49 49 50 49 49 49 49 49 49 49 49 50 50 49 48 47 45 44 43 41 40 39 38 37 36 36 35 34 33 32 32 32 31 31 32 32 33 34
Wind_Direction
353 351 341 328 295 255 240 238 230 225 224 226 225 221 219 220 222 222 222 222 223 224 226 227 229 228 229 231 232 233 233 234 235 238 240 243 245 248
348 341 336 326 305 272 252 243 238 230 226 227 227 224 222 223 224 224 224 225 225 225 228 229 230 232 232 233 234 235 235 236 238 239 242 245 248 250
346 340 330 320 306 285 262 253 249 240 233 231 229 228 227 227 226 225 225 227 228 228 229 231 233 233 234 235 236 237 237 240 240 243 245 248 250 251
335 332 326 318 306 288 273 263 256 247 240 235 232 229 229 229 229 228 230 231 230 231 233 234 236 237 237 238 238 239 240 241 243 244 247 249 251 252
328 322 318 312 306 292 276 265 258 250 241 240 236 233 234 233 234 232 232 231 231 233 234 236 238 238 239 239 239 240 242 243 245 246 247 249 252 253
322 317 310 305 299 291 279 268 260 253 246 243 239 237 237 235 235 234 233 233 234 235 236 238 239 240 241 241 241 243 243 244 246 247 248 251 253 254
314 312 305 299 294 288 279 269 262 257 251 246 242 241 240 238 236 236 236 236 237 238 238 240 241 241 243 243 244 245 246 247 249 251 252 253 254 255
307 304 300 295 291 286 280 272 264 259 255 251 247 243 243 241 238 238 238 239 240 240 239 241 242 243 244 245 245 246 248 250 251 252 253 253 254 256
302 299 296 290 287 283 278 273 266 260 257 252 248 246 245 243 242 241 241 241 242 242 241 242 243 243 245 246 246 247 248 249 251 252 253 254 256 258
296 294 291 288 282 279 275 271 267 263 258 253 250 248 247 245 244 244 245 244 244 243 244 244 244 244 246 247 248 248 249 250 251 252 253 255 257 259
292 288 286 283 281 277 273 270 266 264 260 256 253 251 249 247 246 245 246 247 245 245 245 245 246 246 247 249 249 249 250 251 252 253 254 255 257 258
288 286 283 279 276 274 271 269 267 264 261 258 256 252 249 247 248 248 247 246 246 246 246 245 245 247 246 247 248 250 251 251 252 254 256 256 258 259
284 282 281 277 273 271 270 267 265 263 261 259 256 254 251 250 249 250 249 248 247 246 245 245 246 246 247 247 249 249 251 252 253 254 256 257 258 260
281 279 277 275 271 268 267 266 264 262 261 258 256 255 253 251 249 248 249 249 248 247 247 246 246 246 247 246 247 249 250 251 253 254 256 257 258 260
279 277 274 271 268 266 264 263 262 261 260 258 256 253 253 252 249 247 246 247 247 246 246 246 246 247 247 246 247 247 249 251 253 255 257 258 259 261
276 274 271 269 267 264 262 260 259 259 258 256 255 253 251 250 250 249 246 246 246 246 246 246 246 246 246 246 247 248 250 252 254 256 258 260 261 263
274 272 269 266 265 263 261 259 257 256 255 254 253 253 251 251 250 249 248 247 246 245 245 245 244 245 245 247 249 251 253 254 254 255 257 261 264 266
273 270 268 265 263 261 259 257 256 254 253 252 251 250 250 249 248 247 246 246 245 245 245 246 245 246 247 248 249 251 253 254 255 257 260 263 265 266
272 269 266 264 261 259 257 256 254 252 251 250 249 248 247 246 246 245 244 244 245 245 245 245 245 246 248 249 249 251 253 255 257 259 262 265 267 269
272 269 265 263 261 257 254 253 252 250 249 248 246 246 245 244 244 243 243 243 243 244 244 245 246 247 247 248 250 252 253 256 259 262 265 267 269 271
272 268 265 262 260 256 253 251 250 248 247 246 244 243 243 242 241 241 241 241 242 243 244 245 246 246 247 249 251 253 255 258 260 263 266 268 270 272
271 267 264 261 258 255 252 250 249 246 245 243 242 242 241 240 239 239 240 240 240 242 243 245 246 246 248 250 252 253 256 258 261 263 266 268 270 273
272 268 264 261 257 254 250 247 246 244 244 243 241 240 239 238 237 237 237 238 239 241 243 245 247 247 248 249 252 253 255 257 260 264 267 269 272 274
Height
5797 5796 5796 5796 5796 5797 5798 5799 5801 5803 5805 5808 5810 5813 5817 5820 5823 5827 5831 5834 5837 5841 5844 5847 5850 5854 5857 5859 5862 5865 5868 5871 5873 5876 5878 5880 5882 5883
5798 5797 5796 5796 5796 5797 5797 5798 5800 5801 5803 5806 5808 5811 5814 5817 5820 5824 5827 5830 5833 5837 5840 5843 5846 5849 5852 5855 5858 5860 5863 5866 5868 5871 5873 5875 5877 5879
5798 5797 5796 5796 5796 5796 5796 5797 5798 5799 5801 5803 5805 5807 5810 5813 5816 5819 5823 5826 5829 5832 5835 5839 5842 5844 5847 5850 5852 5855 5858 5860 5863 5865 5867 5869 5871 5873
5797 5796 5796 5795 5795 5795 5795 5795 5796 5797 5799 5800 5802 5804 5806 5809 5812 5815 5818 5821 5824 5827 5831 5834 5837 5839 5842 5845 5847 5849 5852 5854 5857 5859 5862 5863 5865 5867
5796 5795 5794 5794 5793 5793 5793 5793 5794 5794 5796 5797 5799 5801 5803 5805 5808 5811 5814 5816 5819 5822 5825 5828 5831 5834 5836 5839 5841 5844 5846 5849 5851 5853 5855 5857 5859 5860
5795 5793 5792 5792 5791 5790 5790 5790 5791 5792 5793 5794 5795 5797 5799 5801 5804 5806 5809 5811 5814 5817 5819 5822 5825 5828 5830 5833 5835 5838 5840 5842 5845 5847 5848 5850 5852 5853
5792 5791 5790 5789 5788 5787 5787 5787 5788 5788 5789 5790 5791 5793 5795 5797 5799 5801 5804 5806 5809 5811 5814 5816 5819 5821 5824 5826 5829 5831 5833 5835 5837 5839 5841 5843 5844 5846
5789 5787 5786 5785 5784 5784 5783 5783 5784 5785 5785 5786 5787 5789 5790 5792 5794 5796 5798 5801 5803 5806 5808 5810 5812 5815 5817 5819 5821 5824 5826 5828 5830 5832 5833 5835 5837 5838
5784 5783 5782 5781 5780 5779 5779 5779 5779 5780 5780 5781 5783 5784 5785 5787 5789 5790 5792 5795 5797 5799 5801 5803 5805 5808 5810 5812 5814 5816 5818 5820 5822 5824 5826 5827 5829 5830
5778 5777 5776 5775 5775 5774 5774 5774 5774 5774 5775 5776 5777 5778 5779 5781 5783 5784 5786 5788 5790 5792 5794 5796 5798 5800 5802 5804 5806 5808 5810 5812 5814 5816 5817 5819 5820 5822
5771 5770 5769 5768 5768 5767 5767 5767 5767 5768 5768 5769 5770 5771 5772 5774 5776 5778 5779 5781 5783 5785 5787 5789 5791 5793 5794 5796 5798 5800 5802 5804 5806 5807 5809 5810 5812 5813
5762 5761 5760 5760 5759 5759 5759 5759 5760 5760 5761 5761 5762 5764 5765 5766 5768 5770 5772 5773 5775 5777 5779 5781 5783 5785 5787 5788 5790 5792 5794 5796 5797 5799 5800 5801 5803 5804
5751 5751 5750 5749 5749 5749 5749 5750 5751 5751 5752 5753 5754 5755 5756 5758 5760 5761 5763 5765 5767 5768 5770 5772 5774 5776 5779 5781 5782 5784 5786 5787 5789 5790 5792 5793 5794 5795
5737 5737 5737 5737 5737 5737 5738 5739 5739 5741 5742 5744 5745 5747 5748 5749 5751 5752 5754 5756 5758 5760 5761 5764 5766 5768 5770 5773 5774 5776 5778 5779 5781 5782 5783 5784 5785 5786
5721 5721 5721 5722 5723 5724 5725 5726 5727 5729 5730 5732 5734 5736 5738 5739 5741 5743 5745 5747 5749 5751 5753 5755 5758 5760 5762 5764 5766 5768 5770 5771 5772 5773 5774 5775 5776 5777
5703 5704 5704 5706 5707 5709 5711 5712 5714 5716 5718 5720 5722 5725 5727 5729 5731 5733 5735 5737 5740 5742 5744 5746 5748 5751 5753 5755 5757 5759 5761 5762 5764 5765 5766 5766 5767 5768
5685 5686 5687 5689 5691 5693 5695 5697 5699 5702 5704 5707 5709 5712 5715 5718 5720 5723 5725 5727 5730 5732 5734 5737 5739 5741 5744 5746 5748 5750 5752 5753 5755 5756 5757 5757 5758 5758
5665 5667 5669 5671 5673 5675 5678 5681 5684 5687 5690 5692 5695 5698 5702 5705 5708 5711 5714 5717 5720 5722 5725 5727 5729 5732 5735 5737 5739 5741 5742 5744 5745 5746 5747 5748 5748 5749
5646 5648 5650 5652 5654 5657 5660 5664 5668 5671 5674 5677 5681 5684 5688 5691 5695 5699 5702 5705 5708 5712 5714 5717 5719 5722 5725 5727 5730 5731 5733 5734 5735 5736 5737 5738 5738 5738
5627 5628 5631 5633 5635 5638 5641 5645 5649 5653 5657 5661 5665 5669 5673 5677 5681 5685 5689 5693 5697 5700 5703 5706 5709 5712 5715 5717 5719 5721 5722 5724 5725 5726 5727 5727 5727 5727
5608 5609 5611 5613 5615 5618 5622 5625 5630 5634 5639 5644 5649 5654 5658 5662 5667 5672 5676 5680 5684 5688 5692 5695 5698 5701 5703 5706 5708 5710 5712 5713 5714 5715 5716 5716 5716 5716
5589 5589 5591 5593 5596 5599 5603 5607 5611 5616 5621 5627 5632 5637 5643 5648 5653 5658 5663 5667 5672 5676 5680 5683 5686 5689 5692 5695 5697 5699 5701 5702 5703 5704 5705 5705 5705 5705
5569 5570 5571 5573 5576 5580 5584 5588 5593 5599 5604 5610 5616 5621 5627 5632 5638 5643 5648 5653 5658 5663 5667 5671 5674 5677 5680 5683 5686 5688 5690 5691 5692 5693 5694 5694 5694 5694